Погода в Мордовском Бугуруслане

Россия / Оренбургская область     53°47′35″N   52°31′04″E
темп.,
°C
ветер,
м/с
пор.,
м/с
влажн.,
%
обл.,
%
осадки,
мм/ч
давл.,
гПа
погр.,
м
13 мая, чт
чт1323:00+17вюв225585 0.0 102613
02:00+15в22545 0.0 102611
05:00+14в22595 0.0 102621
08:00+17вюв410595 0.0 1026297
11:00+22юв68431 0.0 1026662
14:00+25юв67355 0.0 10251322
17:00+26ююв67355 0.0 10241520
20:00+23юв37530 0.0 1024135
14 мая, пт
пт1423:00+18вюв375852 0.0 1024100
02:00+17вюв22595 0.0 102417
05:00+15вюв225974 0.0 102525
08:00+18юв39555 0.0 1025273
11:00+24ю683745 0.0 1025617
14:00+27ю572956 0.0 10241217
17:00+28ю572829 0.0 10241887
20:00+24ююв36475 0.0 102396
15 мая, сб
сб1523:00+19ююв224956 0.0 102420
02:00+17ююв22522 0.0 102415
05:00+16ююв22525 0.0 102413
08:00+19ююв24515 0.0 1025135
11:00+25ю46365 0.0 1024604
14:00+29ююз56265 0.0 10231760
17:00+29ююз452515 0.0 10222245
20:00+25ююв35465 0.0 102271
16 мая, вс
вс1623:00+20ююв22460 0.0 102213
02:00+18ююв22460 0.0 102111
05:00+17юв11470 0.0 102211
08:00+20ююв24500 0.0 1022127
11:00+26ю353914 0.0 1021630
14:00+30ююз56253 0.0 10203102
17:00+30юз452529 0.0 10193249
20:00+26ююв22393 0.0 101819
17 мая, пн
пн1723:00+21юз41151100 0.0 1020287
02:00+19ююв325525 0.0 101929
05:00+17ююз2364100 0.0 102028
08:00+20ююв246096 0.0 1020133
11:00+25ююз2344100 0.0 1020444
14:00+29юз233298 0.0 10191662
17:00+29зсз23316 0.0 10182658
20:00+21ююв37615 0.4 1019154